Location: Grand Lay
(47.3253°N, 0.9468°E)
Time: 17:22:55
(UTC+00:00)

Cosmos 2181 Rocket - Pass Details

Date: 18 January 2026
Orbit: 952 x 1013 km, 82.9° (Epoch: 16 February)

Event Time Altitude Azimuth Distance (km) Brightness Sun altitude
Rises 04:46:38 0° 350° (N) 3,724 7.0 -28.3°
Reaches altitude 10° 04:49:09 10° 351° (N) 2,779 6.3 -27.9°
Maximum altitude 04:55:34 88° 265° (W) 1,015 3.9 -26.8°
Drops below altitude 10° 05:02:00 10° 175° (S) 2,786 6.5 -25.7°
Sets 05:04:32 0° 175° (S) 3,734 7.2 -25.3°
